DAMPE

Last updated on Mon Jun 22 2026 00:03:38 GMT+0000 (Coordinated Universal Time)

1 41173U 15078A 26172.48268366 .00001108 00000+0 39752-4 0 9997 2 41173 97.4560 177.9713 0013678 64.0431 296.2218 15.30794927585204
UTC large
Height (km)
Speed (km/s)
/
Latitude / Longitude
Inclination (degrees)
Orbital Period (minutes)
Azimuth
Elevation
Range (km)
Doppler Factor

Next 0 passes for location: London (51.5072 / 0.1276)

No passes found over London.
DAMPE